HAZ711 ZSPD-RCTP

Flight info

Callsign HAZ711
Flight time 1h 22m
Altitude 36100
Route MIG81D MIGOL B591 KASKA/N0459F380 B591 BERBA/N0427F240 B591 BAKER BAKER1A
Aircraft B738/M-SDE2E3FGHIRWXY/LB1

Departure

Time 2026-05-06 06:45
Airport Shanghai Pudong International Airport (ZSPD)

Arrival

Time 2026-05-06 08:07
Airport Taiwan Taoyuan International Airport (RCTP)
Time Latitude Longitude Altitude Speed Heading
2026-05-06 06:20 31.14806 121.79790 21 ft 0 kts 72°
2026-05-06 06:29 31.14806 121.79788 21 ft 1 kts 72°
2026-05-06 06:29 31.14801 121.79771 21 ft 2 kts 71°
2026-05-06 06:29 31.14796 121.79755 21 ft 2 kts 72°
2026-05-06 06:30 31.14792 121.79739 21 ft 2 kts 71°
2026-05-06 06:30 31.14787 121.79722 21 ft 2 kts 72°
2026-05-06 06:30 31.14782 121.79705 21 ft 2 kts 71°
2026-05-06 06:30 31.14778 121.79689 21 ft 2 kts 71°
2026-05-06 06:31 31.14773 121.79672 21 ft 2 kts 71°
2026-05-06 06:31 31.14768 121.79655 21 ft 1 kts 72°
2026-05-06 06:31 31.14765 121.79645 21 ft 2 kts 59°
2026-05-06 06:31 31.14754 121.79632 21 ft 2 kts 30°
2026-05-06 06:32 31.14740 121.79627 21 ft 2 kts
2026-05-06 06:32 31.14729 121.79627 21 ft 0 kts 344°
2026-05-06 06:32 31.14722 121.79630 21 ft 0 kts 340°
2026-05-06 06:33 31.14728 121.79627 21 ft 1 kts 341°
2026-05-06 06:34 31.14749 121.79619 21 ft 6 kts 341°
2026-05-06 06:34 31.14820 121.79590 21 ft 11 kts 341°
2026-05-06 06:34 31.14869 121.79572 21 ft 6 kts 345°
2026-05-06 06:34 31.14911 121.79553 21 ft 6 kts 319°
2026-05-06 06:35 31.14919 121.79492 21 ft 11 kts 253°
2026-05-06 06:35 31.14894 121.79394 21 ft 6 kts 253°
2026-05-06 06:35 31.14879 121.79342 21 ft 6 kts 252°
2026-05-06 06:35 31.14885 121.79290 21 ft 6 kts 314°
2026-05-06 06:36 31.14928 121.79271 21 ft 6 kts 341°
2026-05-06 06:36 31.14975 121.79253 21 ft 7 kts 342°
2026-05-06 06:36 31.15041 121.79228 21 ft 13 kts 342°
2026-05-06 06:36 31.15154 121.79186 21 ft 20 kts 342°
2026-05-06 06:37 31.15320 121.79127 21 ft 28 kts 345°
2026-05-06 06:37 31.15525 121.79060 21 ft 29 kts 345°
2026-05-06 06:37 31.15625 121.79026 21 ft 0 kts 343°
2026-05-06 06:38 31.15626 121.79026 21 ft 0 kts 343°
2026-05-06 06:42 31.15640 121.79021 21 ft 7 kts 341°
2026-05-06 06:42 31.15733 121.78976 21 ft 20 kts 337°
2026-05-06 06:43 31.15881 121.78912 21 ft 23 kts 341°
2026-05-06 06:43 31.16038 121.78854 21 ft 23 kts 343°
2026-05-06 06:43 31.16154 121.78771 21 ft 15 kts 256°
2026-05-06 06:43 31.16124 121.78664 21 ft 13 kts 251°
2026-05-06 06:44 31.16085 121.78614 21 ft 8 kts 164°
2026-05-06 06:44 31.16051 121.78627 21 ft 0 kts 162°
2026-05-06 06:44 31.16043 121.78630 21 ft 7 kts 162°
2026-05-06 06:45 31.15730 121.78753 21 ft 89 kts 162°
2026-05-06 06:45 31.14889 121.79062 55 ft 154 kts 161°
2026-05-06 06:45 31.13890 121.79424 924 ft 149 kts 160°
2026-05-06 06:45 31.12897 121.79812 1713 ft 157 kts 161°
2026-05-06 06:46 31.11827 121.80139 2354 ft 169 kts 171°
2026-05-06 06:46 31.10592 121.80324 2911 ft 190 kts 168°
2026-05-06 06:46 31.09267 121.80718 3572 ft 205 kts 163°
2026-05-06 06:46 31.07853 121.81254 4189 ft 223 kts 162°
2026-05-06 06:47 31.06314 121.81842 4853 ft 241 kts 162°
2026-05-06 06:47 31.04664 121.82457 5524 ft 258 kts 163°
2026-05-06 06:47 31.02922 121.83096 6292 ft 271 kts 163°
2026-05-06 06:47 31.01091 121.83765 7160 ft 279 kts 163°
2026-05-06 06:48 30.99222 121.84462 8020 ft 286 kts 162°
2026-05-06 06:48 30.97340 121.85278 8911 ft 292 kts 159°
2026-05-06 06:48 30.95446 121.86186 9769 ft 299 kts 158°
2026-05-06 06:48 30.93529 121.87119 10629 ft 304 kts 158°
2026-05-06 06:49 30.91540 121.88000 11494 ft 308 kts 162°
2026-05-06 06:49 30.89478 121.88779 12357 ft 313 kts 163°
2026-05-06 06:49 30.87381 121.89529 13230 ft 318 kts 163°
2026-05-06 06:49 30.85332 121.90472 14071 ft 324 kts 152°
2026-05-06 06:50 30.83561 121.92165 14864 ft 331 kts 128°
2026-05-06 06:50 30.82430 121.94495 15705 ft 335 kts 109°
2026-05-06 06:50 30.81908 121.97186 16247 ft 348 kts 93°
2026-05-06 06:50 30.81961 122.00028 16747 ft 360 kts 79°
2026-05-06 06:51 30.82532 122.02883 17203 ft 373 kts 71°
2026-05-06 06:51 30.83355 122.05823 17671 ft 387 kts 68°
2026-05-06 06:51 30.84276 122.08843 18101 ft 402 kts 68°
2026-05-06 06:51 30.85227 122.11963 18576 ft 414 kts 68°
2026-05-06 06:52 30.86170 122.15148 19208 ft 421 kts 68°
2026-05-06 06:52 30.87102 122.18396 19931 ft 425 kts 68°
2026-05-06 06:52 30.88018 122.21652 20579 ft 430 kts 69°
2026-05-06 06:52 30.88994 122.24954 21232 ft 434 kts 66°
2026-05-06 06:53 30.90174 122.28181 21844 ft 436 kts 59°
2026-05-06 06:53 30.91758 122.31194 22506 ft 435 kts 51°
2026-05-06 06:53 30.93581 122.34003 23107 ft 437 kts 47°
2026-05-06 06:53 30.95509 122.36742 23721 ft 441 kts 47°
2026-05-06 06:54 30.97359 122.39630 24354 ft 448 kts 52°
2026-05-06 06:54 30.98883 122.42843 24942 ft 458 kts 61°
2026-05-06 06:54 30.99954 122.46342 25643 ft 464 kts 71°
2026-05-06 06:54 31.00568 122.50111 26213 ft 473 kts 79°
2026-05-06 06:55 31.00762 122.53922 26760 ft 481 kts 85°
2026-05-06 06:55 31.00729 122.57849 27281 ft 487 kts 88°
2026-05-06 06:55 31.00604 122.61808 27857 ft 490 kts 89°
2026-05-06 06:55 31.00462 122.65778 28387 ft 494 kts 89°
2026-05-06 06:56 31.00330 122.69798 28959 ft 496 kts 89°
2026-05-06 06:56 31.00224 122.73836 29456 ft 500 kts 88°
2026-05-06 06:56 31.00145 122.77831 30251 ft 496 kts 87°
2026-05-06 06:56 31.00086 122.81820 31096 ft 491 kts 87°
2026-05-06 06:57 31.00045 122.85810 31855 ft 487 kts 86°
2026-05-06 06:57 31.00019 122.89704 32557 ft 484 kts 86°
2026-05-06 06:57 30.99939 122.93639 33224 ft 483 kts 88°
2026-05-06 06:57 30.99676 122.97520 33922 ft 483 kts 92°
2026-05-06 06:58 30.99100 123.01361 34619 ft 484 kts 98°
2026-05-06 06:58 30.98215 123.05174 35240 ft 485 kts 103°
2026-05-06 06:58 30.97139 123.08871 35825 ft 485 kts 106°
2026-05-06 06:58 30.95934 123.12578 36119 ft 489 kts 108°
2026-05-06 06:59 30.94671 123.16267 36111 ft 488 kts 109°
2026-05-06 06:59 30.92100 123.23578 36116 ft 483 kts 109°
2026-05-06 07:00 30.89561 123.30820 36117 ft 484 kts 108°
2026-05-06 07:00 30.87040 123.38084 36113 ft 483 kts 108°
2026-05-06 07:01 30.84539 123.45343 36116 ft 482 kts 108°
2026-05-06 07:01 30.82038 123.52615 36119 ft 483 kts 108°
2026-05-06 07:02 30.79155 123.59622 36116 ft 486 kts 121°
2026-05-06 07:02 30.76971 123.62691 36123 ft 492 kts 134°
2026-05-06 07:02 30.74318 123.65141 36121 ft 492 kts 147°
2026-05-06 07:03 30.68098 123.68553 36120 ft 492 kts 162°
2026-05-06 07:03 30.64753 123.69442 36124 ft 490 kts 174°
2026-05-06 07:03 30.61388 123.69758 36122 ft 490 kts 180°
2026-05-06 07:04 30.54497 123.69805 36121 ft 488 kts 183°
2026-05-06 07:04 30.47689 123.69730 36114 ft 491 kts 177°
2026-05-06 07:05 30.41001 123.71492 36120 ft 494 kts 163°
2026-05-06 07:05 30.34384 123.73660 36113 ft 492 kts 168°
2026-05-06 07:06 30.27586 123.74885 36113 ft 492 kts 176°
2026-05-06 07:06 30.20746 123.75286 36110 ft 490 kts 181°
2026-05-06 07:07 30.13958 123.75326 36110 ft 490 kts 182°
2026-05-06 07:07 30.07090 123.75275 36108 ft 490 kts 182°
2026-05-06 07:08 30.00214 123.75229 36108 ft 491 kts 182°
2026-05-06 07:08 29.93398 123.75162 36106 ft 489 kts 184°
2026-05-06 07:09 29.86524 123.74954 36105 ft 491 kts 184°
2026-05-06 07:09 29.79684 123.74712 36107 ft 493 kts 184°
2026-05-06 07:10 29.72803 123.74478 36107 ft 492 kts 184°
2026-05-06 07:10 29.65924 123.74259 36105 ft 492 kts 184°
2026-05-06 07:11 29.59019 123.74049 36106 ft 494 kts 184°
2026-05-06 07:11 29.52184 123.73849 36107 ft 493 kts 184°
2026-05-06 07:12 29.45259 123.73644 36107 ft 493 kts 184°
2026-05-06 07:12 29.38403 123.73441 36108 ft 495 kts 184°
2026-05-06 07:13 29.31436 123.73235 36104 ft 495 kts 184°
2026-05-06 07:13 29.24502 123.73029 36105 ft 503 kts 184°
2026-05-06 07:14 29.17496 123.72823 36105 ft 502 kts 184°
2026-05-06 07:14 29.10462 123.72618 36104 ft 502 kts 185°
2026-05-06 07:15 29.03483 123.72413 36109 ft 504 kts 184°
2026-05-06 07:15 28.96441 123.72206 36103 ft 504 kts 184°
2026-05-06 07:16 28.89425 123.72002 36106 ft 504 kts 184°
2026-05-06 07:16 28.82394 123.71796 36108 ft 503 kts 185°
2026-05-06 07:17 28.75335 123.71592 36105 ft 504 kts 185°
2026-05-06 07:17 28.68338 123.71387 36105 ft 503 kts 185°
2026-05-06 07:18 28.61278 123.71182 36105 ft 503 kts 185°
2026-05-06 07:18 28.54256 123.70976 36106 ft 505 kts 185°
2026-05-06 07:19 28.47230 123.70773 36106 ft 504 kts 185°
2026-05-06 07:19 28.40215 123.70570 36107 ft 504 kts 185°
2026-05-06 07:20 28.33185 123.70367 36111 ft 505 kts 185°
2026-05-06 07:20 28.26135 123.70164 36104 ft 504 kts 185°
2026-05-06 07:21 28.19066 123.69959 36108 ft 506 kts 185°
2026-05-06 07:21 28.12057 123.69759 36110 ft 502 kts 185°
2026-05-06 07:22 28.05028 123.69556 36102 ft 505 kts 185°
2026-05-06 07:22 27.97944 123.69307 36110 ft 505 kts 187°
2026-05-06 07:23 27.91070 123.67929 36106 ft 493 kts 204°
2026-05-06 07:23 27.84883 123.64755 36096 ft 486 kts 213°
2026-05-06 07:24 27.79103 123.60931 36096 ft 474 kts 226°
2026-05-06 07:24 27.74564 123.55615 36102 ft 469 kts 233°
2026-05-06 07:25 27.69778 123.50563 36092 ft 473 kts 227°
2026-05-06 07:25 27.64606 123.45871 36091 ft 478 kts 224°
2026-05-06 07:26 27.59261 123.41389 36090 ft 475 kts 223°
2026-05-06 07:26 27.53899 123.37031 36087 ft 478 kts 223°
2026-05-06 07:27 27.48477 123.32664 36089 ft 478 kts 222°
2026-05-06 07:27 27.43035 123.28291 36083 ft 477 kts 222°
2026-05-06 07:28 27.37636 123.23955 36087 ft 478 kts 222°
2026-05-06 07:28 27.29521 123.17437 36090 ft 477 kts 222°
2026-05-06 07:29 27.24102 123.13090 36087 ft 476 kts 223°
2026-05-06 07:29 27.18694 123.08754 36089 ft 475 kts 222°
2026-05-06 07:30 27.13278 123.04421 36088 ft 475 kts 222°
2026-05-06 07:30 27.07886 123.00113 36089 ft 474 kts 223°
2026-05-06 07:31 27.02484 122.95801 36083 ft 476 kts 223°
2026-05-06 07:31 26.97083 122.91507 36086 ft 476 kts 222°
2026-05-06 07:32 26.91678 122.87213 36086 ft 475 kts 222°
2026-05-06 07:32 26.86298 122.82945 36082 ft 473 kts 223°
2026-05-06 07:33 26.80930 122.78693 36086 ft 473 kts 223°
2026-05-06 07:33 26.75498 122.74392 36074 ft 473 kts 223°
2026-05-06 07:34 26.70156 122.70176 36064 ft 461 kts 222°
2026-05-06 07:34 26.67529 122.68105 35578 ft 465 kts 223°
2026-05-06 07:34 26.64875 122.66007 34999 ft 462 kts 223°
2026-05-06 07:35 26.62250 122.63934 34427 ft 461 kts 222°
2026-05-06 07:35 26.59607 122.61845 33859 ft 464 kts 222°
2026-05-06 07:35 26.56982 122.59769 33302 ft 469 kts 222°
2026-05-06 07:35 26.54307 122.57653 32766 ft 472 kts 222°
2026-05-06 07:36 26.51601 122.55518 32230 ft 472 kts 221°
2026-05-06 07:36 26.48924 122.53409 31701 ft 473 kts 221°
2026-05-06 07:36 26.46207 122.51271 31172 ft 475 kts 221°
2026-05-06 07:36 26.43517 122.49156 30650 ft 477 kts 221°
2026-05-06 07:37 26.40778 122.47006 30122 ft 478 kts 221°
2026-05-06 07:37 26.38083 122.44890 29606 ft 479 kts 221°
2026-05-06 07:37 26.35351 122.42746 29085 ft 481 kts 221°
2026-05-06 07:37 26.32593 122.40582 28568 ft 483 kts 221°
2026-05-06 07:38 26.29837 122.38420 28051 ft 483 kts 220°
2026-05-06 07:38 26.27102 122.36276 27542 ft 485 kts 220°
2026-05-06 07:38 26.24303 122.34084 27024 ft 485 kts 220°
2026-05-06 07:38 26.21523 122.31908 26509 ft 487 kts 220°
2026-05-06 07:39 26.18773 122.29757 26001 ft 488 kts 219°
2026-05-06 07:39 26.15974 122.27569 25484 ft 489 kts 219°
2026-05-06 07:39 26.13172 122.25381 24971 ft 488 kts 219°
2026-05-06 07:39 26.10399 122.23234 24593 ft 485 kts 219°
2026-05-06 07:40 26.07588 122.21073 24334 ft 494 kts 219°
2026-05-06 07:40 26.04753 122.18904 24074 ft 492 kts 219°
2026-05-06 07:40 26.01921 122.16745 23818 ft 490 kts 219°
2026-05-06 07:40 25.99113 122.14606 23567 ft 489 kts 218°
2026-05-06 07:41 25.96306 122.12468 23320 ft 486 kts 218°
2026-05-06 07:41 25.93537 122.10359 23071 ft 486 kts 218°
2026-05-06 07:41 25.90736 122.08227 22824 ft 483 kts 218°
2026-05-06 07:41 25.87967 122.06117 22571 ft 482 kts 218°
2026-05-06 07:42 25.85193 122.04003 22328 ft 479 kts 218°
2026-05-06 07:42 25.82429 122.01897 22085 ft 478 kts 218°
2026-05-06 07:42 25.79695 121.99815 21846 ft 476 kts 218°
2026-05-06 07:42 25.76969 121.97739 21608 ft 474 kts 218°
2026-05-06 07:43 25.74249 121.95669 21372 ft 472 kts 218°
2026-05-06 07:43 25.71553 121.93617 21134 ft 468 kts 218°
2026-05-06 07:43 25.68857 121.91534 20894 ft 467 kts 220°
2026-05-06 07:43 25.66353 121.89235 20652 ft 462 kts 227°
2026-05-06 07:44 25.64183 121.86695 20414 ft 455 kts 233°
2026-05-06 07:44 25.62251 121.83884 20171 ft 451 kts 239°
2026-05-06 07:44 25.60565 121.81006 19935 ft 447 kts 242°
2026-05-06 07:44 25.58978 121.78037 19696 ft 445 kts 244°
2026-05-06 07:45 25.57451 121.75043 19454 ft 445 kts 244°
2026-05-06 07:45 25.55963 121.72074 19219 ft 442 kts 244°
2026-05-06 07:45 25.54488 121.69127 18971 ft 426 kts 244°
2026-05-06 07:45 25.53070 121.66303 18730 ft 409 kts 244°
2026-05-06 07:46 25.51688 121.63557 18489 ft 394 kts 244°
2026-05-06 07:46 25.50385 121.60967 18247 ft 379 kts 244°
2026-05-06 07:46 25.49082 121.58478 18013 ft 367 kts 241°
2026-05-06 07:46 25.47626 121.56173 17773 ft 358 kts 236°
2026-05-06 07:47 25.46067 121.54041 17542 ft 357 kts 233°
2026-05-06 07:47 25.44436 121.51953 17308 ft 356 kts 232°
2026-05-06 07:47 25.42821 121.49937 16996 ft 347 kts 232°
2026-05-06 07:47 25.41227 121.47948 16639 ft 340 kts 232°
2026-05-06 07:48 25.39679 121.46001 16291 ft 333 kts 232°
2026-05-06 07:48 25.38160 121.44074 15943 ft 327 kts 232°
2026-05-06 07:48 25.36699 121.42212 15591 ft 321 kts 232°
2026-05-06 07:48 25.35239 121.40347 15232 ft 316 kts 232°
2026-05-06 07:49 25.33808 121.38518 14885 ft 312 kts 232°
2026-05-06 07:49 25.32395 121.36712 14530 ft 310 kts 232°
2026-05-06 07:49 25.30975 121.34898 14179 ft 308 kts 231°
2026-05-06 07:49 25.29602 121.33144 13824 ft 306 kts 231°
2026-05-06 07:50 25.28193 121.31347 13441 ft 302 kts 231°
2026-05-06 07:50 25.26808 121.29581 13069 ft 300 kts 231°
2026-05-06 07:50 25.25447 121.27847 12727 ft 297 kts 231°
2026-05-06 07:50 25.24095 121.26125 12388 ft 296 kts 231°
2026-05-06 07:51 25.22740 121.24400 12021 ft 293 kts 231°
2026-05-06 07:51 25.21411 121.22709 11650 ft 291 kts 231°
2026-05-06 07:51 25.20093 121.21027 11281 ft 288 kts 231°
2026-05-06 07:51 25.18778 121.19347 10924 ft 286 kts 230°
2026-05-06 07:52 25.17503 121.17718 10789 ft 280 kts 230°
2026-05-06 07:52 25.16205 121.16065 10789 ft 285 kts 230°
2026-05-06 07:52 25.14919 121.14429 10776 ft 282 kts 230°
2026-05-06 07:52 25.13612 121.12771 10781 ft 279 kts 230°
2026-05-06 07:53 25.12377 121.11204 10717 ft 265 kts 230°
2026-05-06 07:53 25.11163 121.09663 10367 ft 263 kts 230°
2026-05-06 07:53 25.09979 121.08157 9940 ft 258 kts 230°
2026-05-06 07:53 25.08809 121.06668 9470 ft 251 kts 229°
2026-05-06 07:54 25.07690 121.05244 9000 ft 245 kts 229°
2026-05-06 07:54 25.06581 121.03833 8525 ft 240 kts 230°
2026-05-06 07:54 25.05485 121.02439 8045 ft 236 kts 229°
2026-05-06 07:54 25.04421 121.01085 7580 ft 237 kts 230°
2026-05-06 07:55 25.03332 120.99702 7097 ft 236 kts 230°
2026-05-06 07:55 25.02258 120.98338 6621 ft 236 kts 230°
2026-05-06 07:55 25.01191 120.96984 6139 ft 235 kts 230°
2026-05-06 07:55 25.00105 120.95609 5651 ft 235 kts 230°
2026-05-06 07:56 24.99027 120.94247 5165 ft 236 kts 230°
2026-05-06 07:56 24.97953 120.92892 4729 ft 236 kts 230°
2026-05-06 07:56 24.96864 120.91516 4397 ft 235 kts 230°
2026-05-06 07:56 24.95788 120.90158 4188 ft 239 kts 229°
2026-05-06 07:57 24.94684 120.88766 3988 ft 236 kts 228°
2026-05-06 07:57 24.93468 120.87553 3974 ft 237 kts 212°
2026-05-06 07:57 24.91911 120.86990 3975 ft 238 kts 182°
2026-05-06 07:57 24.90278 120.87283 3968 ft 233 kts 159°
2026-05-06 07:58 24.88886 120.88112 3967 ft 218 kts 141°
2026-05-06 07:58 24.87940 120.89329 3974 ft 203 kts 115°
2026-05-06 07:58 24.87528 120.90766 3990 ft 193 kts 98°
2026-05-06 07:58 24.87472 120.92239 3987 ft 191 kts 82°
2026-05-06 07:59 24.87886 120.93613 3978 ft 190 kts 60°
2026-05-06 07:59 24.88689 120.94775 3982 ft 189 kts 47°
2026-05-06 07:59 24.89588 120.95837 3985 ft 189 kts 47°
2026-05-06 07:59 24.90454 120.96929 3979 ft 186 kts 53°
2026-05-06 08:00 24.91017 120.98144 3983 ft 174 kts 73°
2026-05-06 08:00 24.91198 120.99455 3981 ft 175 kts 88°
2026-05-06 08:00 24.91162 121.00806 3981 ft 175 kts 93°
2026-05-06 08:00 24.91114 121.02155 3976 ft 176 kts 85°
2026-05-06 08:01 24.91449 121.03425 3979 ft 168 kts 62°
2026-05-06 08:01 24.92043 121.04470 3987 ft 157 kts 54°
2026-05-06 08:01 24.92701 121.05432 3988 ft 157 kts 51°
2026-05-06 08:01 24.93391 121.06351 3871 ft 154 kts 49°
2026-05-06 08:02 24.94078 121.07230 3716 ft 145 kts 49°
2026-05-06 08:02 24.94755 121.08088 3453 ft 148 kts 49°
2026-05-06 08:02 24.95426 121.08935 3227 ft 142 kts 49°
2026-05-06 08:02 24.96073 121.09751 3036 ft 140 kts 49°
2026-05-06 08:03 24.96709 121.10553 2862 ft 139 kts 49°
2026-05-06 08:03 24.97337 121.11339 2671 ft 135 kts 49°
2026-05-06 08:03 24.97949 121.12111 2496 ft 133 kts 49°
2026-05-06 08:03 24.98564 121.12888 2313 ft 133 kts 49°
2026-05-06 08:04 24.99174 121.13655 2138 ft 131 kts 49°
2026-05-06 08:04 24.99770 121.14405 1965 ft 129 kts 49°
2026-05-06 08:04 25.00359 121.15148 1796 ft 127 kts 49°
2026-05-06 08:04 25.00947 121.15887 1628 ft 127 kts 50°
2026-05-06 08:05 25.01531 121.16625 1461 ft 127 kts 49°
2026-05-06 08:05 25.02113 121.17359 1292 ft 127 kts 48°
2026-05-06 08:05 25.02693 121.18092 1126 ft 128 kts 47°
2026-05-06 08:05 25.03281 121.18829 961 ft 127 kts 48°
2026-05-06 08:06 25.03874 121.19578 796 ft 127 kts 48°
2026-05-06 08:06 25.04457 121.20314 631 ft 128 kts 48°
2026-05-06 08:06 25.05041 121.21051 469 ft 126 kts 48°
2026-05-06 08:06 25.05621 121.21786 304 ft 128 kts 47°
2026-05-06 08:07 25.06221 121.22520 153 ft 127 kts 48°
2026-05-06 08:07 25.06778 121.23240 116 ft 114 kts 49°
2026-05-06 08:07 25.07136 121.23686 116 ft 41 kts 49°
2026-05-06 08:07 25.07244 121.23826 116 ft 18 kts 49°
2026-05-06 08:08 25.07330 121.23933 116 ft 18 kts 49°
2026-05-06 08:08 25.07417 121.24041 116 ft 18 kts 43°
2026-05-06 08:08 25.07516 121.24139 116 ft 19 kts 41°
2026-05-06 08:08 25.07633 121.24207 116 ft 19 kts 21°
2026-05-06 08:09 25.07752 121.24201 116 ft 17 kts 296°
2026-05-06 08:09 25.07709 121.24100 116 ft 16 kts 229°
2026-05-06 08:09 25.07633 121.24003 116 ft 16 kts 229°
2026-05-06 08:09 25.07553 121.23902 116 ft 17 kts 230°
2026-05-06 08:10 25.07495 121.23788 116 ft 16 kts 281°
2026-05-06 08:10 25.07553 121.23739 116 ft 9 kts 315°
2026-05-06 08:10 25.07601 121.23682 116 ft 10 kts 303°
2026-05-06 08:10 25.07603 121.23618 116 ft 8 kts 290°
2026-05-06 08:11 25.07646 121.23573 116 ft 8 kts 319°
2026-05-06 08:11 25.07683 121.23539 116 ft 1 kts 319°
2026-05-06 08:11 25.07684 121.23538 116 ft 0 kts 319°